Temperature
18 19 19 19 17 14 17 17 17 18 18 19 19 19 17 17 17 18 21 20 20 19 18 17 15 14 13 12 12 11 11 11 11 10 10 10 9 9 9 9 8 8 8 8 8 8 8 8 8
18 19 19 19 15 15 16 17 17 18 18 19 19 19 18 19 20 20 20 20 19 19 18 17 15 14 13 12 12 11 11 11 11 10 10 10 9 9 9 9 8 8 8 8 8 8 8 9 9
19 19 19 15 15 16 18 18 17 18 18 19 19 19 19 20 20 20 20 20 19 19 18 17 16 14 13 12 11 11 11 11 11 10 10 10 9 9 9 9 9 9 9 9 8 9 9 9 9
19 19 19 15 17 17 17 17 17 17 18 19 18 19 19 20 20 20 20 20 19 19 18 17 15 13 12 11 11 11 11 11 10 10 10 10 9 9 9 9 9 9 9 9 9 9 9 9 9
19 19 15 15 17 17 16 17 17 17 18 18 18 17 19 21 21 20 20 19 19 19 18 17 15 13 12 11 11 11 11 10 10 10 10 9 9 9 9 9 9 9 9 9 9 9 9 9 9
20 17 15 15 16 16 16 18 17 17 18 18 18 17 19 21 21 20 19 19 18 18 17 16 15 13 12 11 11 10 10 10 10 10 10 9 9 9 9 9 9 9 9 9 9 9 9 9 9
19 14 16 16 16 16 17 19 18 18 18 19 19 17 20 20 20 20 19 19 18 17 17 16 14 13 12 11 11 10 10 10 10 10 9 9 9 9 9 9 9 9 9 9 9 9 9 9 9
19 14 16 15 16 16 18 19 19 19 19 20 19 18 19 20 19 19 19 18 18 17 16 15 14 13 12 11 10 10 10 10 9 9 9 9 9 9 9 9 9 9 9 9 9 9 9 9 9
19 14 15 16 16 16 18 18 19 19 19 19 19 20 20 19 19 19 19 18 18 17 16 15 14 13 12 11 10 10 10 9 9 9 9 9 9 9 9 9 9 9 8 8 8 8 8 8 8
18 14 16 16 16 16 17 18 18 18 17 18 19 19 19 19 18 18 18 18 18 18 17 16 15 14 13 11 10 10 10 9 9 9 9 9 10 9 9 9 9 9 8 8 8 8 8 8 8
17 15 15 17 18 17 17 17 18 17 15 18 18 19 19 18 18 18 18 18 18 18 17 17 15 14 13 12 11 10 9 9 9 9 9 9 9 9 9 9 9 9 9 9 8 8 8 8 8
16 16 16 17 18 17 17 17 17 17 18 19 18 18 18 18 18 18 18 18 17 17 17 16 15 14 13 12 11 11 10 10 10 9 9 9 9 9 9 9 9 9 9 8 8 8 8 8 8
16 15 17 17 17 17 16 16 16 17 18 18 18 18 18 18 18 18 17 17 17 17 16 16 15 14 13 12 12 11 11 10 10 10 9 9 9 9 9 9 9 8 8 8 8 8 8 8 7
16 16 16 16 16 15 15 15 15 18 18 18 18 18 17 17 17 17 17 17 17 17 16 16 15 14 13 13 12 12 11 10 10 10 9 9 9 9 9 8 8 8 8 8 8 7 7 7 7
15 14 14 16 16 16 15 15 14 17 17 17 17 17 17 17 17 17 18 18 17 17 16 16 15 14 14 13 12 12 11 10 10 10 9 9 9 9 8 8 8 8 8 7 7 7 7 7 7
15 14 15 15 14 15 16 15 15 16 16 16 16 17 17 17 17 17 18 18 18 17 16 16 15 14 14 13 12 11 11 10 10 10 9 9 9 8 8 8 8 8 7 7 7 7 7 7 7
13 13 14 14 14 14 15 14 13 16 15 15 16 16 16 17 17 17 18 18 18 17 17 16 15 15 14 13 12 11 11 10 10 9 9 9 8 8 8 8 8 7 7 7 7 7 7 7 7
15 14 14 13 13 13 13 12 12 14 14 14 15 16 16 16 16 17 17 18 17 17 16 16 15 14 13 12 12 11 10 10 10 10 9 9 9 8 8 8 8 7 7 7 7 6 6 6 6
14 14 13 12 13 13 12 12 12 13 13 14 14 15 15 15 16 16 17 17 17 17 16 15 15 14 13 13 12 11 11 11 10 10 9 9 9 8 8 8 8 7 7 7 7 6 6 6 6
13 13 12 12 13 12 11 11 12 13 13 13 14 14 15 16 16 16 16 16 16 16 15 15 14 13 13 12 12 11 11 10 10 10 9 9 9 9 8 8 8 7 7 7 6 6 6 5 5
14 13 13 13 12 12 12 13 14 14 14 14 14 14 15 15 15 15 15 15 15 15 14 14 13 13 12 12 11 11 11 10 10 10 10 10 9 9 8 8 8 7 7 7 6 6 5 5 5
13 14 13 13 12 11 12 12 13 13 13 13 14 14 14 14 14 14 14 14 14 14 14 13 13 13 12 12 11 11 11 11 11 10 10 9 9 9 8 8 7 7 7 6 6 6 5 5 4
14 13 13 12 11 11 11 11 11 12 13 13 13 14 14 14 14 14 13 13 13 13 13 13 12 12 12 11 11 11 10 10 10 10 10 9 9 9 8 8 7 7 7 6 6 6 5 5 4
13 12 11 9 9 12 12 12 12 11 12 13 13 14 14 14 13 13 13 13 12 12 12 12 12 12 11 11 10 10 10 10 10 9 9 9 9 8 8 8 7 7 7 6 6 5 5 4 4
13 12 11 13 11 12 11 11 11 12 11 11 12 13 13 13 13 12 12 12 12 12 12 11 11 11 11 10 10 10 9 9 9 8 8 8 8 8 8 7 7 7 6 6 6 5 5 4 4
13 12 12 13 12 10 10 11 11 11 11 11 12 13 13 12 12 12 11 11 11 11 11 11 10 10 10 10 9 9 8 8 8 8 7 7 7 7 7 7 6 6 6 5 5 5 5 4 4
12 11 11 10 10 10 10 10 10 11 11 11 11 12 12 12 11 11 11 10 10 10 10 10 9 9 9 9 8 8 8 7 7 7 7 6 6 6 6 6 6 5 5 5 5 4 4 4 3
12 9 9 10 11 11 10 10 11 12 11 10 10 11 11 11 11 11 10 10 10 9 9 9 9 8 8 7 7 7 7 6 6 6 6 6 5 5 5 5 5 5 4 4 4 4 3 3 3
11 11 9 8 9 10 10 11 11 11 10 9 9 10 10 10 10 10 10 9 9 9 8 8 8 7 7 7 6 6 6 6 5 5 5 5 5 5 4 4 4 4 4 3 3 3 3 2 2
11 11 9 11 10 8 8 10 10 9 9 9 9 9 10 10 9 9 9 9 8 8 8 7 7 6 6 6 5 5 5 5 5 5 5 4 4 4 3 3 3 3 3 2 2 2 2 1 1
Wind_Speed
2 2 3 4 6 5 2 5 3 3 3 2 2 4 6 6 6 6 2 9 7 12 24 25 25 23 21 19 17 16 15 13 12 11 10 10 9 9 8 8 8 9 9 10 10 10 11 11 12
1 1 4 5 5 1 5 5 5 5 3 1 1 1 2 6 5 4 2 9 10 17 24 23 25 24 22 20 18 17 16 14 13 12 11 10 9 8 8 8 7 8 8 8 9 9 9 10 10
1 3 5 5 4 4 4 4 5 3 1 1 2 2 3 5 4 4 4 10 11 17 23 23 26 24 22 21 19 18 17 15 14 13 11 10 9 9 8 7 7 7 7 7 7 8 8 8 9
3 5 6 5 1 4 5 7 5 4 2 0 1 6 6 4 3 2 5 10 11 13 21 22 26 24 23 21 20 19 17 16 15 14 13 11 10 9 8 8 7 6 6 6 6 6 6 7 7
4 5 5 3 4 5 5 6 3 2 2 2 2 4 7 2 1 4 8 12 13 12 19 21 26 24 23 22 20 19 18 17 16 15 13 12 11 10 9 8 7 6 6 5 5 5 5 5 5
5 5 4 2 6 6 6 4 3 3 4 3 4 4 8 2 3 5 9 10 9 11 16 19 25 24 23 22 21 20 19 18 17 15 14 13 12 11 10 9 8 7 6 5 4 4 3 3 3
5 4 3 3 4 7 5 3 3 4 5 6 6 5 7 4 2 5 8 8 8 11 14 16 20 22 23 22 21 20 19 18 17 16 15 14 13 12 11 10 9 8 7 5 4 3 3 2 2
5 5 1 2 4 7 5 2 3 5 8 3 8 7 9 3 4 7 7 7 7 8 10 14 15 18 20 21 22 21 20 19 18 17 16 15 14 13 12 11 10 9 8 7 6 5 4 3 2
4 4 2 5 5 7 4 4 5 2 4 4 6 7 5 3 7 8 6 5 7 10 9 12 13 14 17 19 20 21 21 20 19 17 17 15 13 11 10 11 11 10 9 8 8 7 6 5 4
5 2 7 6 6 6 6 6 6 5 6 6 7 7 1 5 8 10 11 13 15 16 13 10 11 12 15 17 18 18 18 18 18 16 16 14 12 11 9 10 12 12 11 10 10 9 8 6 4
4 6 6 6 6 5 6 6 4 4 9 10 10 9 3 6 8 11 12 13 17 14 14 13 11 13 14 14 15 14 15 15 16 16 15 14 12 11 10 9 10 9 8 7 7 5 4 4 5
3 6 5 6 3 3 5 5 4 6 11 6 5 6 3 7 12 15 15 14 10 10 14 13 11 11 13 14 13 13 13 13 13 16 17 15 12 10 10 10 10 9 8 7 7 6 5 6 7
4 6 5 6 8 6 6 7 6 8 10 8 6 4 4 7 10 12 11 10 10 11 12 12 11 11 11 11 11 12 13 14 15 16 18 18 14 11 12 11 12 12 11 10 9 9 9 9 10
3 5 9 9 6 2 3 4 2 8 7 8 8 7 7 7 8 7 9 10 12 13 12 11 13 12 12 10 9 10 13 14 15 17 19 20 18 15 13 12 12 14 15 15 13 12 11 11 11
3 6 9 4 4 3 3 8 4 6 8 10 10 10 9 7 6 7 9 10 11 10 10 12 12 11 11 10 11 11 13 15 14 16 19 21 20 18 16 12 12 16 18 16 14 12 11 8 9
3 5 5 7 6 5 4 7 6 6 8 9 10 10 10 9 7 7 7 7 7 7 8 10 12 12 12 10 10 10 12 14 14 16 18 20 21 20 17 13 13 17 17 15 10 7 6 7 7
4 4 5 8 5 5 3 8 9 8 6 6 8 10 10 11 11 10 8 4 3 5 6 8 10 11 12 9 8 9 10 12 14 15 16 18 20 20 18 15 15 16 14 12 10 8 7 8 10
3 4 5 7 6 5 5 8 11 8 4 4 7 9 10 12 12 11 10 6 2 2 4 6 7 8 8 6 5 4 5 7 11 14 16 18 19 20 19 16 15 14 9 9 9 10 9 8 8
2 4 7 8 5 4 6 8 9 6 3 5 7 8 10 10 10 10 11 9 7 5 2 3 5 5 6 4 5 5 6 5 5 11 16 18 19 20 19 15 13 12 11 13 13 10 9 9 5
3 4 7 7 3 2 5 7 5 1 1 2 4 7 8 10 12 13 12 11 9 6 3 1 2 4 6 5 4 3 3 4 5 8 14 19 20 21 20 16 12 11 11 12 12 11 7 7 7
4 6 6 6 7 3 5 6 2 2 2 2 3 4 6 7 9 11 11 11 9 8 4 2 1 3 4 4 3 2 0 2 3 6 8 13 19 20 21 19 16 12 12 14 15 15 13 11 9
5 5 5 3 3 5 4 3 5 2 4 2 3 5 6 7 8 8 10 10 9 8 5 4 2 1 2 4 4 6 6 7 8 6 6 8 14 18 21 20 17 13 12 15 16 15 14 13 12
5 0 1 1 2 2 2 1 8 2 4 4 3 2 3 5 7 8 8 8 8 7 7 5 4 2 0 2 4 5 8 9 7 5 7 8 8 13 17 18 15 14 14 15 16 15 15 15 15
2 4 4 5 4 2 1 2 6 3 5 3 2 2 1 4 6 7 7 8 8 8 8 7 6 5 2 1 3 5 8 9 9 10 9 8 7 8 12 14 14 14 14 16 17 17 15 16 17
5 5 5 5 4 4 2 3 8 5 4 4 4 3 0 3 5 6 9 9 9 10 9 8 7 6 5 3 4 6 8 9 10 11 10 9 8 7 10 11 12 13 14 15 15 15 17 18 18
3 6 4 2 4 6 4 5 6 4 4 0 2 3 2 3 4 5 6 7 7 8 8 8 8 7 6 6 6 6 7 6 7 9 9 9 9 10 10 10 11 13 14 15 15 15 17 16 18
5 3 5 5 1 4 7 7 7 1 4 4 4 3 3 3 4 4 5 6 6 7 7 7 7 7 8 7 7 7 7 7 8 9 8 9 10 10 10 10 11 12 13 14 14 14 16 16 17
3 8 5 4 2 4 7 6 5 3 1 1 2 2 3 3 4 5 5 5 5 6 6 7 7 7 7 8 7 7 8 8 8 8 10 10 11 10 11 11 11 12 12 13 13 13 14 16 17
4 4 5 4 4 4 5 7 5 4 3 2 1 2 2 3 3 4 4 5 6 7 7 7 8 8 8 9 8 9 9 9 9 9 11 11 11 11 11 12 12 12 12 12 12 14 14 16 17
5 6 7 4 4 5 4 7 2 2 1 2 1 1 2 3 3 3 5 6 7 8 8 8 8 8 9 9 9 9 10 10 10 11 12 11 12 12 12 12 12 13 13 12 13 14 14 15 17
Wind_Direction
1 70 75 57 54 50 278 260 250 267 253 246 187 174 181 189 187 238 284 159 159 157 173 182 177 177 177 176 174 171 169 166 163 157 153 147 139 131 122 114 105 97 91 86 82 79 77 75 75
93 110 56 60 84 51 282 263 257 245 261 353 60 128 213 248 231 254 242 178 164 162 171 181 178 178 178 178 176 174 173 171 169 165 161 155 150 143 133 125 116 107 100 94 89 85 82 79 79
128 54 79 74 108 181 261 267 264 282 295 347 299 261 239 246 235 245 213 170 159 165 173 180 178 180 180 180 179 178 177 176 174 172 169 166 161 155 146 138 130 120 112 104 96 91 87 85 85
91 49 56 72 188 225 240 278 291 298 330 222 242 288 272 244 234 231 160 160 158 166 174 182 180 182 183 183 182 182 181 181 180 179 176 174 171 166 159 151 145 137 128 119 109 100 94 91 92
59 75 56 22 290 270 261 276 247 217 270 262 188 262 274 243 85 131 152 164 166 166 174 184 182 184 185 186 185 185 186 185 185 184 183 181 179 175 170 166 162 157 150 139 127 114 104 98 99
55 65 73 298 286 288 280 250 183 211 255 255 202 240 260 231 159 169 165 168 167 165 173 184 186 188 188 189 189 189 190 190 190 189 189 189 187 184 181 180 178 175 171 163 153 140 124 114 110
99 94 158 237 282 296 278 200 202 226 252 242 195 212 271 278 199 160 160 156 159 167 173 185 192 191 192 192 192 192 193 194 194 195 195 195 194 192 191 190 191 190 188 186 183 175 167 157 145
116 101 106 272 268 277 270 260 241 218 249 234 166 201 250 298 105 116 127 144 160 173 181 188 195 192 192 193 195 195 196 198 199 199 199 199 199 200 200 199 201 202 203 204 206 208 208 208 206
87 77 262 248 238 263 270 275 275 257 250 248 217 224 249 108 119 118 127 160 181 192 196 193 196 192 189 190 196 197 199 200 202 203 202 201 200 201 204 199 208 212 214 217 220 224 227 229 232
89 159 238 225 213 244 276 263 270 283 275 270 271 262 148 151 164 171 181 190 196 201 200 197 196 192 187 189 194 196 197 199 201 200 200 196 190 192 196 200 213 221 224 227 229 232 235 229 220
153 205 240 252 240 247 271 267 242 229 268 255 260 275 224 191 202 205 206 202 204 202 199 200 197 192 188 188 188 190 191 192 194 193 191 185 183 186 190 200 216 230 237 237 241 254 227 207 215
211 247 244 265 266 252 249 270 273 223 247 283 278 275 227 218 218 218 218 218 209 202 204 201 194 193 193 189 188 187 187 188 187 189 187 180 177 183 188 198 210 221 228 228 229 233 231 228 230
247 273 276 266 283 264 266 261 264 267 283 314 316 314 270 247 238 234 232 229 212 213 207 200 195 195 192 190 190 190 190 191 190 189 190 188 184 188 195 203 211 220 225 226 227 231 234 237 240
285 292 296 289 288 267 271 288 249 284 329 344 352 336 310 280 262 256 244 234 220 216 208 197 198 196 191 195 195 194 193 193 191 193 195 195 194 194 196 204 212 219 223 226 227 229 231 237 240
321 321 322 321 348 336 329 326 257 296 346 352 349 341 333 321 302 272 256 241 229 218 203 196 199 194 195 199 199 196 193 193 195 199 201 201 201 200 201 205 213 220 223 225 228 233 235 241 241
39 14 328 311 349 345 9 300 288 350 1 352 351 351 349 340 328 308 292 260 233 209 196 195 199 197 200 202 200 198 195 197 203 203 203 206 207 206 204 210 220 221 218 217 217 219 224 235 237
24 349 299 305 336 355 0 276 291 343 358 360 358 357 357 357 357 346 333 300 241 200 186 186 194 195 198 197 197 200 199 205 208 206 208 211 212 211 210 219 224 216 212 215 222 216 214 231 238
285 295 288 284 307 341 294 275 299 331 0 11 5 3 5 8 356 347 356 3 36 140 168 178 191 190 181 179 184 198 212 216 215 214 218 216 217 215 217 226 225 211 209 218 219 226 218 227 235
225 247 273 272 288 312 285 290 302 322 23 27 14 9 6 358 346 4 17 29 45 54 92 165 180 177 163 167 187 205 226 224 225 225 225 221 221 219 219 230 225 214 221 227 222 221 225 232 213
213 261 276 290 311 298 304 298 301 333 15 7 10 9 4 358 3 9 17 27 32 34 35 78 180 180 182 185 177 190 205 223 224 228 230 227 226 224 225 228 230 222 226 230 224 214 217 224 191
238 222 248 280 325 0 338 332 338 6 9 14 24 15 10 13 5 2 10 18 23 21 8 9 214 192 190 175 153 140 132 294 257 235 235 232 230 229 229 231 230 227 224 232 229 221 220 231 214
267 239 222 269 332 311 21 308 283 291 312 318 348 6 8 10 11 10 11 13 14 6 7 14 17 157 181 171 182 201 220 240 244 239 239 236 229 231 231 233 232 232 229 233 233 226 224 226 231
227 48 174 235 187 323 1 185 287 307 254 252 255 315 358 13 16 15 12 10 13 11 17 18 22 26 96 192 208 221 242 252 267 269 261 254 238 233 234 233 233 235 235 235 236 232 225 224 231
121 72 67 58 75 341 268 178 283 256 237 245 234 231 350 17 18 16 13 17 15 14 19 20 21 12 355 268 240 237 252 264 276 278 273 270 258 245 238 236 235 237 238 238 238 236 231 230 230
70 65 13 356 8 267 305 219 254 269 267 225 203 201 67 25 23 14 13 13 9 9 10 11 14 2 347 319 279 259 258 262 266 273 274 275 273 263 252 240 238 239 240 241 239 238 236 234 232
130 130 144 241 269 294 321 249 256 291 320 342 141 123 67 27 17 13 13 12 6 5 6 5 2 350 341 329 306 287 273 267 268 270 271 272 272 269 264 250 244 243 242 242 241 240 239 238 235
125 134 151 135 183 281 290 293 306 15 42 57 69 62 21 0 6 9 11 11 4 360 356 350 346 339 333 327 318 309 299 286 279 280 277 275 273 275 270 263 258 253 248 245 243 243 241 239 238
124 142 105 124 187 281 296 285 259 261 281 11 8 355 339 350 4 8 6 357 347 343 338 340 339 329 321 322 316 309 302 294 288 288 286 282 279 277 275 272 267 263 257 252 247 248 247 243 242
128 128 122 123 161 181 273 276 229 214 213 207 251 308 333 356 353 353 344 335 334 337 338 335 333 329 325 322 315 310 304 300 296 290 286 284 284 281 277 274 272 269 265 259 254 252 250 248 249
180 178 153 166 218 188 208 268 294 170 179 157 168 329 355 360 353 342 336 339 340 336 333 329 324 321 314 311 309 306 302 302 299 294 291 288 286 283 279 277 275 272 268 262 257 259 256 252 251
Height
1533 1534 1536 1538 1543 1554 1554 1547 1543 1541 1539 1538 1538 1538 1539 1540 1543 1544 1536 1534 1535 1536 1537 1539 1541 1543 1546 1548 1550 1551 1553 1554 1555 1556 1557 1558 1558 1558 1559 1559 1559 1559 1559 1559 1558 1558 1558 1558 1557
1534 1535 1538 1539 1550 1561 1556 1545 1542 1539 1538 1537 1537 1537 1537 1536 1535 1534 1533 1533 1534 1535 1537 1538 1540 1542 1545 1547 1549 1551 1552 1554 1555 1556 1557 1558 1558 1559 1559 1559 1559 1559 1559 1559 1559 1558 1558 1558 1558
1535 1536 1539 1542 1553 1558 1551 1541 1540 1538 1537 1537 1537 1537 1537 1535 1534 1533 1533 1533 1533 1534 1536 1537 1539 1541 1544 1546 1548 1550 1552 1554 1555 1556 1557 1558 1558 1559 1559 1559 1559 1559 1559 1559 1559 1559 1559 1559 1559
1536 1538 1540 1547 1550 1548 1545 1540 1538 1537 1537 1537 1537 1537 1535 1534 1533 1532 1532 1532 1532 1534 1535 1537 1538 1541 1543 1545 1548 1550 1551 1553 1554 1555 1557 1557 1558 1558 1559 1559 1559 1559 1559 1559 1559 1559 1559 1559 1559
1537 1538 1545 1553 1550 1545 1541 1538 1537 1537 1537 1536 1537 1535 1533 1532 1531 1530 1531 1531 1532 1533 1534 1536 1538 1540 1542 1545 1547 1549 1551 1552 1554 1555 1556 1557 1558 1558 1559 1559 1559 1559 1559 1560 1560 1560 1560 1560 1560
1538 1539 1553 1556 1550 1544 1540 1537 1537 1536 1536 1535 1535 1534 1531 1530 1529 1529 1529 1530 1531 1532 1533 1535 1537 1539 1541 1543 1545 1548 1550 1551 1553 1554 1556 1557 1557 1558 1558 1559 1559 1559 1559 1560 1560 1560 1560 1560 1560
1539 1544 1551 1550 1550 1545 1538 1536 1536 1535 1534 1534 1533 1532 1528 1528 1527 1527 1527 1528 1529 1530 1532 1533 1535 1537 1540 1542 1544 1546 1548 1550 1552 1553 1555 1556 1557 1557 1558 1558 1559 1559 1559 1559 1559 1560 1560 1560 1560
1538 1543 1548 1551 1549 1545 1537 1535 1534 1534 1532 1532 1531 1529 1526 1526 1525 1525 1525 1525 1526 1528 1529 1531 1533 1535 1537 1540 1542 1544 1546 1549 1550 1552 1553 1555 1556 1557 1557 1558 1558 1558 1559 1559 1559 1559 1559 1559 1559
1538 1547 1552 1548 1545 1541 1535 1534 1533 1532 1530 1529 1527 1525 1524 1523 1522 1521 1522 1522 1523 1524 1526 1528 1530 1532 1535 1537 1540 1542 1544 1546 1549 1550 1552 1553 1554 1555 1556 1557 1557 1558 1558 1558 1558 1558 1558 1558 1558
1538 1548 1545 1539 1538 1536 1533 1532 1531 1530 1527 1525 1523 1522 1520 1519 1518 1517 1518 1518 1519 1521 1523 1525 1527 1529 1532 1534 1537 1539 1542 1544 1546 1548 1549 1551 1552 1554 1555 1555 1556 1556 1557 1557 1557 1557 1557 1557 1557
1537 1541 1537 1534 1534 1533 1532 1530 1528 1527 1525 1521 1520 1518 1517 1515 1514 1513 1513 1514 1516 1518 1520 1522 1524 1526 1529 1531 1534 1536 1539 1541 1543 1545 1547 1549 1550 1552 1552 1554 1554 1555 1555 1555 1556 1555 1555 1556 1555
1537 1535 1534 1532 1532 1531 1529 1528 1526 1524 1521 1519 1518 1516 1513 1511 1510 1509 1509 1510 1513 1514 1516 1519 1521 1523 1526 1528 1531 1533 1536 1538 1540 1542 1544 1546 1547 1549 1550 1552 1552 1553 1553 1554 1554 1554 1554 1553 1553
1536 1534 1532 1530 1529 1528 1527 1525 1524 1520 1518 1517 1515 1513 1510 1508 1506 1506 1506 1507 1508 1510 1513 1515 1518 1520 1523 1525 1528 1530 1532 1535 1537 1539 1541 1543 1545 1546 1548 1549 1550 1550 1551 1551 1551 1551 1551 1550 1550
1535 1533 1531 1528 1526 1526 1525 1523 1523 1517 1517 1515 1513 1510 1508 1506 1504 1502 1502 1502 1503 1505 1508 1512 1514 1517 1520 1522 1524 1527 1529 1532 1534 1536 1538 1540 1541 1543 1544 1545 1546 1547 1547 1548 1547 1547 1547 1546 1546
1534 1533 1529 1526 1525 1525 1525 1524 1521 1518 1516 1513 1511 1509 1507 1505 1502 1500 1499 1499 1500 1502 1505 1507 1511 1514 1516 1519 1521 1524 1526 1529 1530 1532 1535 1536 1538 1539 1540 1541 1541 1542 1543 1543 1543 1542 1542 1541 1541
1534 1537 1537 1528 1526 1525 1528 1529 1519 1518 1515 1513 1511 1509 1507 1504 1502 1500 1498 1497 1498 1499 1501 1504 1507 1509 1512 1515 1518 1520 1522 1525 1526 1529 1530 1532 1533 1534 1535 1535 1536 1537 1538 1538 1537 1537 1535 1535 1534
1540 1544 1540 1534 1527 1527 1528 1527 1518 1518 1515 1514 1512 1510 1508 1505 1503 1500 1498 1497 1497 1498 1499 1501 1504 1506 1509 1512 1515 1517 1519 1520 1522 1524 1525 1527 1528 1529 1529 1529 1530 1531 1531 1531 1531 1530 1529 1528 1528
1542 1542 1541 1539 1530 1529 1529 1527 1519 1517 1516 1515 1514 1512 1509 1507 1505 1503 1500 1498 1498 1498 1499 1500 1502 1504 1506 1509 1511 1513 1515 1516 1517 1519 1520 1521 1522 1523 1523 1523 1523 1524 1523 1523 1523 1522 1521 1521 1520
1538 1540 1542 1538 1530 1530 1529 1527 1521 1517 1516 1515 1515 1513 1511 1510 1509 1506 1503 1501 1500 1500 1500 1500 1502 1503 1505 1506 1508 1509 1510 1512 1513 1514 1515 1515 1516 1516 1516 1516 1515 1515 1514 1514 1514 1514 1513 1512 1513
1538 1540 1541 1535 1530 1530 1529 1526 1520 1518 1517 1517 1516 1515 1513 1512 1510 1508 1506 1505 1503 1502 1502 1502 1502 1503 1504 1505 1507 1507 1508 1508 1509 1510 1509 1509 1509 1509 1508 1507 1507 1506 1505 1505 1505 1504 1503 1502 1503
1536 1539 1536 1535 1532 1530 1530 1525 1520 1518 1518 1518 1517 1516 1515 1514 1512 1511 1509 1508 1506 1505 1504 1504 1504 1504 1504 1505 1505 1505 1505 1505 1504 1504 1504 1504 1503 1502 1501 1500 1499 1497 1496 1495 1495 1494 1493 1492 1492
1537 1531 1533 1533 1538 1540 1536 1539 1525 1521 1519 1518 1517 1517 1516 1516 1515 1514 1512 1510 1509 1508 1507 1506 1505 1505 1504 1504 1504 1504 1503 1501 1501 1500 1498 1497 1496 1495 1493 1492 1490 1488 1487 1485 1484 1484 1482 1482 1480
1530 1529 1531 1533 1537 1541 1539 1540 1531 1522 1520 1518 1517 1517 1517 1517 1516 1515 1514 1513 1512 1510 1509 1507 1506 1505 1505 1504 1503 1502 1500 1498 1497 1495 1493 1491 1490 1488 1486 1484 1482 1480 1478 1476 1475 1473 1471 1470 1469
1527 1531 1535 1540 1543 1542 1536 1540 1533 1525 1519 1517 1516 1517 1517 1518 1517 1517 1516 1514 1513 1512 1510 1509 1507 1506 1505 1503 1502 1500 1497 1495 1492 1490 1488 1485 1483 1481 1479 1476 1473 1471 1469 1466 1465 1463 1461 1459 1457
1529 1537 1545 1541 1546 1542 1537 1539 1533 1519 1517 1516 1515 1516 1517 1518 1518 1517 1516 1515 1513 1512 1510 1509 1507 1505 1503 1502 1499 1497 1494 1491 1488 1485 1482 1479 1476 1473 1471 1468 1465 1462 1460 1457 1455 1452 1450 1448 1446
1530 1535 1546 1548 1550 1548 1539 1538 1526 1517 1515 1514 1515 1516 1517 1518 1517 1517 1516 1514 1513 1511 1510 1508 1506 1504 1501 1499 1496 1493 1490 1487 1483 1480 1476 1473 1469 1466 1463 1460 1456 1453 1450 1447 1445 1441 1439 1437 1434
1532 1537 1538 1549 1550 1552 1544 1535 1523 1516 1515 1515 1515 1516 1517 1517 1517 1516 1515 1514 1512 1511 1509 1506 1504 1501 1498 1495 1492 1489 1486 1482 1478 1474 1470 1466 1462 1458 1454 1451 1447 1444 1441 1438 1434 1430 1428 1426 1423
1528 1535 1544 1548 1548 1549 1543 1537 1529 1518 1517 1517 1516 1516 1517 1517 1516 1515 1514 1513 1511 1509 1507 1504 1501 1498 1494 1491 1487 1484 1480 1476 1472 1467 1463 1458 1454 1450 1445 1442 1438 1434 1431 1427 1424 1420 1417 1414 1411
1532 1534 1539 1547 1548 1551 1549 1536 1519 1517 1516 1516 1516 1516 1516 1515 1514 1513 1512 1511 1510 1507 1505 1501 1498 1494 1490 1486 1482 1478 1474 1469 1465 1460 1455 1450 1445 1441 1436 1432 1428 1424 1420 1417 1413 1409 1406 1403 1399
1526 1529 1537 1541 1544 1550 1552 1536 1515 1515 1514 1515 1515 1515 1514 1514 1513 1512 1511 1509 1507 1504 1501 1497 1493 1489 1485 1481 1476 1472 1467 1462 1457 1452 1447 1442 1436 1432 1427 1422 1417 1413 1409 1406 1402 1398 1395 1391 1388